[[{"header":{"parameterUnit":"m.s-1","parameterCategory":1,"la1":30.2991,"la2":30.254,"lo1":-89.0895,"lo2":-89.0444,"dy":0.0017,"dx":0.0017,"nx":28,"ny":28,"refTime":"2024-06-01T03:00:00:Z","depth":0,"parameterNumber":2,"parameterNumberName":"U-component_of_WINDS"},"data":[0,0,0,0,0,0,0,0,0,0,0,0,0,0,0,0,0,0,0,0,0,0,0,0,0,0,0,0,0,0,0,0,0,0,0,0,0,0,0,0,0,0,0,0,0,0,0,0,0,0,0,0,0,0,0,0,0,0,2.6609,2.6604,0,2.6207,2.6202,2.6198,2.5896,2.5893,2.5891,2.5888,2.5457,2.5448,2.5439,0,0,0,0,0,0,0,0,0,0,0,0,0,2.7098,2.709,2.6609,2.6604,2.6599,2.6208,2.6202,2.6197,2.5896,2.5893,2.589,2.5887,2.546,2.5449,2.5438,0,0,0,0,0,0,0,0,0,0,0,0,0,2.681,2.7088,2.661,2.6403,2.638,2.6209,2.6202,2.6195,2.5897,2.5893,2.5889,2.5885,2.5463,2.545,2.5437,2.5434,0,0,2.5396,2.539,0,0,0,0,0,0,0,0,2.6826,2.6792,2.6438,2.6417,2.6391,2.6098,2.6216,2.5939,2.5898,2.608,2.5888,2.5883,2.5672,2.5641,2.5574,2.5413,2.5395,2.5394,2.5386,2.5381,2.5377,0,0,0,0,0,0,0,2.6847,2.6807,2.6449,2.6433,2.6404,2.6323,2.6278,2.6162,2.5902,2.6064,2.6041,2.5999,2.5658,2.5588,2.5562,2.5389,2.5395,2.5383,2.5375,2.5369,2.5203,2.5207,0,0,0,0,0,0,2.6902,2.6826,2.6462,2.6437,2.6604,2.6318,2.6267,2.6196,2.5903,2.5855,2.6002,2.5986,2.5613,2.5578,2.5545,2.5521,2.5381,2.5368,2.536,2.52,2.5204,2.5208,0,0,0,0,0,0,2.6913,2.6872,2.6478,2.6625,2.6569,2.6314,2.6236,2.619,2.6119,2.5857,2.5807,2.5979,2.5608,2.5564,2.5465,2.5502,2.5362,2.535,2.5195,2.5201,2.5206,2.5475,0,0,0,0,0,0,2.6929,2.6878,2.6878,2.6628,2.6563,2.6411,2.6238,2.6185,2.6099,2.6074,2.5822,2.5776,2.5602,2.5487,2.5452,2.5481,2.5339,2.5191,2.5198,2.5204,2.5462,2.5489,2.5513,0,0,0,0,0,2.6947,2.6966,2.688,2.6838,2.6559,2.6414,2.6375,2.618,2.6104,2.6099,2.593,2.5784,2.5505,2.5479,2.5437,2.5463,2.5187,2.5196,2.5204,2.545,2.5484,2.5512,0,0,0,0,0,0,2.7219,2.6929,2.6831,2.677,2.6621,2.6364,2.6351,2.6222,2.6084,2.6066,2.5822,2.5768,2.5694,2.5567,2.5544,2.5444,2.5327,2.5328,2.5529,2.5559,2.5584,2.5615,2.5328,0,0,0,0,0,2.7274,2.7187,2.6935,2.6906,2.6836,2.6609,2.6537,2.6401,2.6232,2.6165,2.5989,2.5826,2.57,2.5622,2.5493,2.5443,2.5382,2.544,2.5466,2.5488,2.549,2.5453,2.5475,2.5235,2.5235,2.5235,0,0,2.7382,2.7213,2.7171,2.6956,2.6824,2.6733,2.6556,2.6467,2.6396,2.6148,2.6046,2.5912,2.5713,2.5639,2.5597,2.5531,2.5543,2.5498,2.5518,2.5507,2.5464,2.5486,2.5507,2.5241,2.524,2.5239,0,0,2.7534,2.74,2.7361,2.7233,2.7038,2.6886,2.6878,2.6641,2.6545,2.644,2.6253,2.6161,2.5951,2.5818,2.5722,2.5828,2.5687,2.5792,2.5924,2.5891,2.591,2.5925,2.5961,2.5977,2.5796,2.5796,2.5797,0,2.7692,2.7555,2.7355,2.7279,2.7189,2.6969,2.6925,2.6808,2.6578,2.6518,2.6449,2.6183,2.6033,2.5925,2.5952,2.5882,2.5861,2.5818,2.5925,2.5938,2.5949,2.598,2.5995,2.581,2.5809,2.5807,2.5806,0,2.7758,2.7666,2.7657,2.7449,2.7357,2.7297,2.7083,2.7013,2.6885,2.674,2.6634,2.6448,2.6277,2.6241,2.6112,2.6114,2.6079,2.5972,2.5849,2.599,2.6015,2.6025,2.583,2.5825,2.5821,2.5818,0,0,2.8066,2.7753,2.7752,2.7656,2.7425,2.7347,2.7276,2.7116,2.706,2.6909,2.684,2.667,2.657,2.6462,2.6316,2.6287,2.6382,2.6181,2.6173,2.6224,2.6369,2.6452,2.6469,2.6289,2.629,2.6291,2.6386,0,2.818,2.8049,2.7868,2.7794,2.7705,2.7496,2.7433,2.7283,2.7146,2.7045,2.6889,2.6773,2.665,2.6584,2.6547,2.6379,2.6407,2.6369,2.6217,2.6214,2.6272,2.6482,2.6567,2.6666,2.6394,2.6396,2.6397,0,2.8295,2.8165,2.8085,2.7864,2.7819,2.7768,2.7607,2.7516,2.7339,2.724,2.7124,2.6968,2.6877,2.677,2.6639,2.6618,2.6544,2.6452,2.6451,2.6427,2.6313,2.6462,2.6692,2.6707,2.6411,2.641,2.6409,0,2.8528,2.833,2.8257,2.818,2.7921,2.789,2.7779,2.7599,2.7515,2.7372,2.7314,2.7162,2.7077,2.6959,2.6764,2.6705,2.6653,2.653,2.6564,2.657,2.656,2.6563,2.6781,2.6518,2.6518,2.6518,2.6518,0,2.8673,2.8631,2.8358,2.8313,2.8259,2.805,2.8,2.7869,2.7712,2.7633,2.7441,2.737,2.7118,2.7016,2.6862,2.6776,2.6738,2.6653,2.6612,2.6669,2.668,2.6615,2.6602,2.6521,2.6521,2.652,2.6519,0,2.8921,2.8737,2.8643,2.8409,2.8348,2.8319,2.8114,2.8059,2.7914,2.7817,2.7781,2.7549,2.7419,2.7215,2.7021,2.6918,2.6857,2.679,2.692,2.6895,2.694,2.6938,2.7122,2.7134,2.6869,2.6871,2.6874,0,2.9025,2.8989,2.8754,2.8692,2.859,2.8491,2.8406,2.8198,2.8117,2.7915,2.7884,2.7741,2.7615,2.7416,2.7226,2.7077,2.7004,2.7079,2.6979,2.7038,2.7002,2.7006,2.7,2.7101,2.7105,2.7108,2.7111,0,2.9228,2.914,2.903,2.8889,2.8796,2.8673,2.8539,2.8497,2.8258,2.8175,2.8045,2.7949,2.7756,2.7614,2.744,2.7317,2.7173,2.7145,2.7144,2.72,2.7276,2.7234,2.6981,2.714,2.7137,2.7135,2.7133,2.7132,2.9404,2.9364,2.9194,2.9077,2.8957,2.8837,2.8776,2.8625,2.8515,2.8347,2.8229,2.8106,2.7927,2.768,2.7567,2.7462,2.7399,2.7399,2.7398,2.7401,2.7422,2.7297,2.7429,2.7428,2.7427,2.7426,2.7425,0,2.9596,2.9478,2.9374,2.9198,2.9106,2.8987,2.8833,2.8762,2.8659,2.8509,2.8392,2.8241,2.8104,2.7906,2.7752,2.7707,2.7637,2.7673,2.7672,2.7646,2.7488,2.7503,2.7733,2.7733,2.7733,2.7733,2.7733,2.7733,2.9685,2.9611,2.9504,2.9366,2.9244,2.9128,2.9051,2.8938,2.8818,2.8662,2.855,2.8425,2.8254,2.8087,2.7954,2.7899,2.785,2.7907,2.7831,2.7686,2.7658,2.7631,2.7644,2.7899,2.7899,2.7997,2.7999,2.7999]},{"header":{"parameterUnit":"m.s-1","parameterCategory":1,"la1":30.2991,"la2":30.254,"lo1":-89.0895,"lo2":-89.0444,"dy":0.0017,"dx":0.0017,"nx":28,"ny":28,"refTime":"2024-06-01T03:00:00:Z","depth":0,"parameterNumber":3,"parameterNumberName":"V-component_of_WINDS"},"data":[0,0,0,0,0,0,0,0,0,0,0,0,0,0,0,0,0,0,0,0,0,0,0,0,0,0,0,0,0,0,0,0,0,0,0,0,0,0,0,0,0,0,0,0,0,0,0,0,0,0,0,0,0,0,0,0,0,0,6.1719,6.1726,0,6.2389,6.2396,6.2404,6.2456,6.2448,6.2441,6.2434,6.3113,6.3137,6.3161,0,0,0,0,0,0,0,0,0,0,0,0,0,6.0465,6.0488,6.1718,6.1726,6.1735,6.2387,6.2396,6.2406,6.2457,6.2448,6.2439,6.2431,6.3104,6.3134,6.3164,0,0,0,0,0,0,0,0,0,0,0,0,0,6.106,6.0496,6.1717,6.1839,6.1857,6.2385,6.2397,6.2408,6.2459,6.2448,6.2437,6.2426,6.3095,6.3131,6.3168,6.3617,0,0,6.3282,6.3298,0,0,0,0,0,0,0,0,6.1026,6.1105,6.1813,6.1832,6.1852,6.2327,6.2204,6.2813,6.2461,6.223,6.2434,6.2421,6.286,6.2916,6.3065,6.3649,6.3678,6.3285,6.3308,6.3324,6.3334,0,0,0,0,0,0,0,6.0985,6.1077,6.1983,6.1823,6.1847,6.1855,6.1927,6.2319,6.2598,6.2249,6.2255,6.2334,6.2868,6.3029,6.3081,6.3688,6.3284,6.3317,6.334,6.3355,6.4659,6.4671,0,0,0,0,0,0,6.0922,6.1042,6.1962,6.2003,6.1404,6.1886,6.1967,6.2186,6.2594,6.2646,6.2342,6.2334,6.2971,6.3038,6.3105,6.3652,6.3323,6.3358,6.338,6.4647,6.4662,6.4675,0,0,0,0,0,0,6.0895,6.1004,6.1935,6.1525,6.1644,6.192,6.2165,6.2205,6.2366,6.2664,6.2713,6.2457,6.2965,6.3053,6.3487,6.3676,6.3375,6.3409,6.4633,6.4652,6.4669,6.4751,0,0,0,0,0,0,6.0859,6.0994,6.1173,6.1528,6.1665,6.2312,6.2177,6.2226,6.2431,6.2426,6.2785,6.2833,6.2963,6.3431,6.3524,6.3722,6.3438,6.4617,6.4641,6.4663,6.4733,6.477,6.4802,0,0,0,0,0,6.0814,6.1171,6.1182,6.1293,6.1896,6.2323,6.2401,6.2545,6.2446,6.2625,6.2813,6.2822,6.3639,6.3475,6.358,6.3792,6.4606,6.4634,6.4661,6.4717,6.4763,6.4801,0,0,0,0,0,0,6.0832,6.122,6.1237,6.1721,6.1988,6.2331,6.2562,6.259,6.289,6.2873,6.3035,6.3115,6.3542,6.371,6.3521,6.4241,6.4111,6.4161,6.4117,6.4163,6.4197,6.4148,6.3469,0,0,0,0,0,6.0891,6.121,6.153,6.1925,6.2058,6.2286,6.2478,6.2564,6.2847,6.296,6.3182,6.3452,6.3768,6.3975,6.4284,6.4754,6.4828,6.495,6.4984,6.5011,6.5054,6.5304,6.5359,6.4766,6.4766,6.4765,0,0,6.102,6.1271,6.1463,6.1935,6.2153,6.2472,6.2382,6.2727,6.2963,6.3012,6.3435,6.3604,6.3916,6.4368,6.4578,6.4521,6.5232,6.5047,6.5066,6.5094,6.5338,6.5393,6.5443,6.4785,6.4781,6.4778,0,0,6.1417,6.1641,6.1991,6.2208,6.2537,6.2684,6.2766,6.3103,6.3217,6.3644,6.3683,6.3962,6.4508,6.4725,6.4907,6.5366,6.5382,6.5461,6.5644,6.5885,6.5932,6.5974,6.6132,6.6188,6.5502,6.5502,6.5502,0,6.1534,6.2023,6.2166,6.2509,6.271,6.2765,6.3115,6.3317,6.373,6.3864,6.3794,6.447,6.4685,6.5182,6.5293,6.544,6.5533,6.5425,6.5914,6.5958,6.5999,6.6151,6.6211,6.5509,6.5508,6.5508,6.5507,0,6.2146,6.2482,6.2724,6.3119,6.3347,6.3691,6.3879,6.4092,6.4153,6.4304,6.4729,6.4986,6.5342,6.5465,6.5532,6.597,6.5923,6.5881,6.5754,6.6061,6.6206,6.6266,6.552,6.5517,6.5515,6.5513,0,0,6.2586,6.3045,6.3131,6.3306,6.3665,6.3925,6.4264,6.4612,6.4788,6.5065,6.5349,6.5801,6.5761,6.5966,6.6054,6.6266,6.6603,6.6198,6.6207,6.626,6.7091,6.712,6.7186,6.6613,6.6625,6.6634,6.7063,0,6.302,6.3633,6.3764,6.429,6.4596,6.4644,6.4938,6.5185,6.5331,6.5606,6.5764,6.608,6.6007,6.6129,6.6341,6.6518,6.6772,6.6489,6.6874,6.6886,6.6795,6.7264,6.7299,6.7693,6.7122,6.7132,6.7139,0,6.3615,6.3902,6.4458,6.4764,6.4898,6.5161,6.5483,6.5748,6.6024,6.6113,6.6335,6.6397,6.6742,6.6593,6.7065,6.6869,6.7032,6.714,6.7158,6.7202,6.7033,6.7316,6.7823,6.7881,6.7231,6.7224,6.7217,0,6.3872,6.4399,6.4797,6.4945,6.5315,6.5496,6.5657,6.5923,6.6119,6.6397,6.6524,6.6838,6.7011,6.7248,6.7388,6.7269,6.7847,6.7713,6.7926,6.7922,6.805,6.804,6.8587,6.8154,6.8153,6.8152,6.8151,0,6.4346,6.4682,6.4917,6.5162,6.5535,6.5677,6.6041,6.62,6.6432,6.6702,6.6761,6.7011,6.7182,6.7454,6.7564,6.7933,6.8011,6.8088,6.8114,6.8084,6.8074,6.8195,6.8171,6.8168,6.8165,6.8161,6.8159,0,6.4702,6.4874,6.5309,6.5618,6.5703,6.5964,6.6226,6.646,6.66,6.694,6.7027,6.7247,6.7568,6.773,6.8131,6.8204,6.8619,6.8628,6.8527,6.8537,6.874,6.8717,6.9385,6.9476,6.8983,6.8987,6.8991,0,6.4994,6.5253,6.5587,6.5773,6.5937,6.6236,6.6434,6.6577,6.678,6.7104,6.7297,6.762,6.7888,6.8397,6.8588,6.8891,6.8907,6.9118,6.8953,6.891,6.8905,6.8888,6.8911,6.9149,6.9154,6.9158,6.9161,0,6.5491,6.5559,6.5846,6.6157,6.6391,6.6644,6.6892,6.7038,6.7219,6.7441,6.777,6.7977,6.838,6.8698,6.9012,6.917,6.9194,6.921,6.9275,6.9248,6.9177,6.9213,6.8606,6.9196,6.9192,6.919,6.9188,6.9187,6.5824,6.6052,6.632,6.6632,6.6831,6.7058,6.729,6.7455,6.7733,6.8075,6.8139,6.8485,6.8738,6.9162,6.9328,6.9595,6.9549,6.9644,6.9668,6.9689,6.9697,6.9132,6.9653,6.9652,6.9651,6.9651,6.965,0,6.6321,6.6492,6.6778,6.712,6.7361,6.736,6.763,6.7831,6.8136,6.8371,6.863,6.9,6.9304,6.9513,6.9819,6.9991,7.0009,7.0067,7.0056,7.009,6.9724,6.9635,7.0047,7.0047,7.0047,7.0047,7.0046,7.0046,6.6609,6.6993,6.7089,6.7567,6.7734,6.8075,6.8228,6.8432,6.862,6.9032,6.9284,6.9418,6.964,6.9959,7.0234,7.0286,7.0395,7.0453,7.0505,7.0159,7.0117,7.0078,6.9996,7.0476,7.0476,7.0849,7.0852,7.0855]}]]